Showing default

VSP ROSE, 59124

Orbit data source: Space-Track

VSP ROSE, 59124 is a payload satellite owned by Aerospacelab (BE) in SSO that was launched on Mon, 04 Mar 2024 UTC via an FALCON 9 launch vehicle from the Air Force Western Test Range (AFWTR). Payload-class satellites include a variety of spacecraft equipped with specific instruments for various scientific and technological missions. These include communications satellites like Starlink; space stations such as the ISS; scientific satellites like the Hubble; Earth observation satellites from companies like Planet Labs, Umbra, and HawkEye 360; GPS; miniature CubeSats for education and research; and military/defense satellites.

Loading next visibility...
Identifier
59124, 2024-043AC
Orbit
SSO
Country
Flag of BEBE / BEL
Related business
Manufacturer
Aerospacelab
Mission
Operational Commercial Imaging
Bus & Motor
AEROSP, Unknown motor
Mass
~200 kg wet, ~200 kg dry
Launch date (UTC)
2024-03-04 (3 years ago)
Launch vehicle
FALCON 9
Launch site
Air Force Western Test Range (AFWTR)
Object type
Payload
Rocket body
Debris
Shape & HBR
Box + 2 Pan, 1.0 m
Radar Cross Section
0.963 m², Large (>1 m²)

Expand to show TLE details & history
Last TLE update: 8 hours ago

TLE from 8 hours ago
0 VSP ROSE
1 59124U 24043AC  26257.56074498  .00003477  00000-0  12425-3 0  9997
2 59124  97.5745  35.4615 0008801 294.4687  65.5634 15.29501718140644
Epoch: 2026-09-14T13:27Z
TLE epoch observation values (Epoch: 2026-09-14T13:27:28.366Z)
Latitude
-0.00006°
Longitude
-159.94597°
Altitude
477.907 km
Speed
7.628 km/s
True Right ascension
02h 21m 50s
True Declination
0° 00' 00"
Sunlit
Object was in full shadow at epoch
Visualization orbit readout
Latitude
Unknown
Longitude
Unknown
Altitude
Unknown
Speed
Unknown
Apparent Right ascension
Unknown
Apparent Declination
Unknown
Sunlit
N/A
Visualization observer readout
Local Sidereal Time
14:19:09
Azimuth
Unknown
Elevation
Unknown
Doppler factor
Unknown
Orbital elements
Apogee altitude
480.292 km
Perigee altitude
468.231 km
Semi-major axis
6,852.398 km
Eccentricity
0.00088
Inclination
97.5745°
RAAN
35.4615°
Arg. of periapsis
294.4687°
True anomaly
65.65526°
Mean anomaly
65.5634°
Eccentric anomaly
65.60933°
Mean motion
3.8263 °/min
Orbital period
94.09 mins
BSTAR
0.00012425
Loading maneuver chart data...
Computing Atmospheric mass density...
Loading historical data...
Loading historical data...
Loading historical data...
Loading historical data...
Loading historical data...
Loading historical data...
Loading historical data...

Documentation

Showing up to 5 results
|